Location: Santa Cristina
(46.5667°N, 11.7167°E)
Time: 16:45:14
(UTC+00:00)

Cosmos 1821 Rocket - Pass Details

Date: 21 April 2021
Orbit: 946 x 1004 km, 82.9° (Epoch: 11 May)

Event Time Altitude Azimuth Distance (km) Brightness Sun altitude
Rises 01:13:59 0° 351° (N) 3,704 7.7 -25.5°
Reaches altitude 10° 01:16:30 10° 353° (N) 2,759 7.0 -25.2°
Maximum altitude 01:22:52 82° 81° (E) 1,014 4.0 -24.6°
Enters shadow 01:25:39 37° 165° (SSE) 1,518 4.7 -24.3°
